Satellite: NOAA-11
Catalog number: 19531
Epoch time: 07214.31073032
Element set: 758
Inclination: 098.8127 deg
RA of node: 302.9025 deg
Eccentricity: 0.0010815
Arg of perigee: 259.2642 deg
Mean anomaly: 100.7364 deg
Mean motion: 14.14847320 rev/day
Decay rate: 3.0e-07 rev/day^2
Epoch rev: 97267
Checksum: 275
Satellite: NOAA-12
Catalog number: 21263
Epoch time: 07214.41684696
Element set: 254
Inclination: 098.7526 deg
RA of node: 211.5846 deg
Eccentricity: 0.0012306
Arg of perigee: 338.0382 deg
Mean anomaly: 022.0259 deg
Mean motion: 14.25551466 rev/day
Decay rate: 6.9e-07 rev/day^2
Epoch rev: 84283
Checksum: 299
Satellite: MET-3/5
Catalog number: 21655
Epoch time: 07213.90611155
Element set: 0341
Inclination: 082.5527 deg
RA of node: 330.6398 deg
Eccentricity: 0.0014685
Arg of perigee: 092.3179 deg
Mean anomaly: 267.9626 deg
Mean motion: 13.17011832 rev/day
Decay rate: 5.1e-07 rev/day^2
Epoch rev: 76742
Checksum: 300
Satellite: MET-2/21
Catalog number: 22782
Epoch time: 07213.78289474
Element set: 0894
Inclination: 082.5481 deg
RA of node: 005.7362 deg
Eccentricity: 0.0024046
Arg of perigee: 107.0467 deg
Mean anomaly: 253.3315 deg
Mean motion: 13.83618630 rev/day
Decay rate: -3.2e-07 rev/day^2
Epoch rev: 70282
Checksum: 298
Satellite: OKEAN-4
Catalog number: 23317
Epoch time: 07213.73907480
Element set: 0332
Inclination: 082.5359 deg
RA of node: 254.0354 deg
Eccentricity: 0.0024083
Arg of perigee: 101.4373 deg
Mean anomaly: 258.9564 deg
Mean motion: 14.82521668 rev/day
Decay rate: 6.1e-07 rev/day^2
Epoch rev: 69080
Checksum: 293
Satellite: NOAA-14
Catalog number: 23455
Epoch time: 07214.79065921
Element set: 739
Inclination: 098.9868 deg
RA of node: 281.2192 deg
Eccentricity: 0.0008795
Arg of perigee: 333.2361 deg
Mean anomaly: 026.8332 deg
Mean motion: 14.13723922 rev/day
Decay rate: 2.0e-08 rev/day^2
Epoch rev: 64922
Checksum: 314
Satellite: SICH-1
Catalog number: 23657
Epoch time: 07214.75663686
Element set: 132
Inclination: 082.5264 deg
RA of node: 034.0299 deg
Eccentricity: 0.0025850
Arg of perigee: 090.0010 deg
Mean anomaly: 270.4155 deg
Mean motion: 14.81505068 rev/day
Decay rate: 2.64e-06 rev/day^2
Epoch rev: 64292
Checksum: 282
Satellite: NOAA-15
Catalog number: 25338
Epoch time: 07214.45490434
Element set: 94
Inclination: 098.5308 deg
RA of node: 209.8368 deg
Eccentricity: 0.0009524
Arg of perigee: 253.5094 deg
Mean anomaly: 106.5051 deg
Mean motion: 14.24658755 rev/day
Decay rate: 1.30e-06 rev/day^2
Epoch rev: 47927
Checksum: 312
Satellite: RESURS
Catalog number: 25394
Epoch time: 07213.94630157
Element set: 0702
Inclination: 098.4358 deg
RA of node: 266.6578 deg
Eccentricity: 0.0002468
Arg of perigee: 060.0212 deg
Mean anomaly: 300.1211 deg
Mean motion: 14.24141934 rev/day
Decay rate: -2.0e-08 rev/day^2
Epoch rev: 47086
Checksum: 268
Satellite: FENGYUN1
Catalog number: 25730
Epoch time: 07213.48888965
Element set: 189
Inclination: 098.6882 deg
RA of node: 195.6403 deg
Eccentricity: 0.0020869
Arg of perigee: 004.6801 deg
Mean anomaly: 355.4529 deg
Mean motion: 14.07567674 rev/day
Decay rate: 9.0e-07 rev/day^2
Epoch rev: 42384
Checksum: 338
Satellite: OKEAN-0
Catalog number: 25860
Epoch time: 07213.59495361
Element set: 119
Inclination: 097.7318 deg
RA of node: 213.7237 deg
Eccentricity: 0.0000661
Arg of perigee: 095.9440 deg
Mean anomaly: 264.1839 deg
Mean motion: 14.73466176 rev/day
Decay rate: 5.4e-07 rev/day^2
Epoch rev: 43218
Checksum: 307
Satellite: NOAA-16
Catalog number: 26536
Epoch time: 07214.58911899
Element set: 515
Inclination: 099.1188 deg
RA of node: 192.3448 deg
Eccentricity: 0.0011311
Arg of perigee: 047.0164 deg
Mean anomaly: 313.1953 deg
Mean motion: 14.12441613 rev/day
Decay rate: -1.80e-06 rev/day^2
Epoch rev: 35365
Checksum: 294
Satellite: NOAA-17
Catalog number: 27453
Epoch time: 07214.75629465
Element set: 525
Inclination: 098.5768 deg
RA of node: 282.9367 deg
Eccentricity: 0.0010993
Arg of perigee: 322.3515 deg
Mean anomaly: 037.6898 deg
Mean motion: 14.23897616 rev/day
Decay rate: -7.9e-07 rev/day^2
Epoch rev: 26534
Checksum: 358
Satellite: NOAA-18
Catalog number: 28654
Epoch time: 07214.76850250
Element set: 60
Inclination: 098.8294 deg
RA of node: 155.2734 deg
Eccentricity: 0.0014976
Arg of perigee: 133.6274 deg
Mean anomaly: 226.6167 deg
Mean motion: 14.11081611 rev/day
Decay rate: -3.9e-07 rev/day^2
Epoch rev: 11342
Checksum: 296
/EX
SB KEPS @ AMSAT $ORB07214.M
Orbital Elements 07214.MISC
HR AMSAT ORBITAL ELEMENTS FOR MANNED AND MISCELLANEOUS SATELLITES
FROM WA5QGD FORT WORTH,TX August 2, 2007
Send Subscribe/unsubscribe to KEPS at
http://www.amsat.org/mailman/listinfo/keps
BID: ORB07214.M
TO ALL RADIO AMATEURS BT
Satellite: HUBBLE
Catalog number: 20580
Epoch time: 07213.44423882
Element set: 0933
Inclination: 028.4684 deg
RA of node: 254.9995 deg
Eccentricity: 0.0003879
Arg of perigee: 214.3994 deg
Mean anomaly: 145.6346 deg
Mean motion: 15.00265041 rev/day
Decay rate: 3.12e-06 rev/day^2
Epoch rev: 74676
Checksum: 310
Satellite: UARS
Catalog number: 21701
Epoch time: 07213.92349786
Element set: 0143
Inclination: 056.9756 deg
RA of node: 115.3939 deg
Eccentricity: 0.0085323
Arg of perigee: 281.0084 deg
Mean anomaly: 078.1382 deg
Mean motion: 15.48580253 rev/day
Decay rate: 2.106e-05 rev/day^2
Epoch rev: 87283
Checksum: 308
Satellite: PO-34
Catalog number: 25520
Epoch time: 07213.96338297
Element set: 0792
Inclination: 028.4600 deg
RA of node: 162.3683 deg
Eccentricity: 0.0005136
Arg of perigee: 037.5103 deg
Mean anomaly: 322.5849 deg
Mean motion: 15.17028025 rev/day
Decay rate: 3.53e-06 rev/day^2
Epoch rev: 48448
Checksum: 295
Satellite: ISS
Catalog number: 25544
Epoch time: 07214.92047792
Element set: 704
Inclination: 051.6315 deg
RA of node: 222.4484 deg
Eccentricity: 0.0008825
Arg of perigee: 193.9630 deg
Mean anomaly: 239.2762 deg
Mean motion: 15.76032450 rev/day
Decay rate: 8.503e-05 rev/day^2
Epoch rev: 49815
Checksum: 301
Satellite: OO-38
Catalog number: 26063
Epoch time: 07214.78884651
Element set: 974
Inclination: 100.2281 deg
RA of node: 226.0198 deg
Eccentricity: 0.0037310
Arg of perigee: 029.0292 deg
Mean anomaly: 331.2946 deg
Mean motion: 14.35811767 rev/day
Decay rate: -3.0e-07 rev/day^2
Epoch rev: 39373
Checksum: 300
Satellite: UWE-1
Catalog number: 28892
Epoch time: 07213.52739530
Element set: 0810
Inclination: 098.1264 deg
RA of node: 109.2620 deg
Eccentricity: 0.0017067
Arg of perigee: 335.2705 deg
Mean anomaly: 024.7626 deg
Mean motion: 14.59526235 rev/day
Decay rate: 6.0e-08 rev/day^2
Epoch rev: 09382
Checksum: 291
Satellite: CO-58
Catalog number: 28895
Epoch time: 07213.71029524
Element set: 789
Inclination: 098.1289 deg
RA of node: 109.6700 deg
Eccentricity: 0.0017509
Arg of perigee: 334.3368 deg
Mean anomaly: 025.6946 deg
Mean motion: 14.59572196 rev/day
Decay rate: 5.4e-07 rev/day^2
Epoch rev: 9373
Checksum: 347
Satellite: NCUBE2
Catalog number: 28897
Epoch time: 07213.64293349
Element set: 0318
Inclination: 098.1263 deg
RA of node: 109.5569 deg
Eccentricity: 0.0017031
Arg of perigee: 336.1939 deg
Mean anomaly: 023.8471 deg
Mean motion: 14.59736007 rev/day
Decay rate: 1.03e-06 rev/day^2
Epoch rev: 08600
Checksum: 305
Satellite: NMARS
Catalog number: 29662
Epoch time: 07126.39603970
Element set: 263
Inclination: 051.6121 deg
RA of node: 302.3682 deg
Eccentricity: 0.0004459
Arg of perigee: 252.1654 deg
Mean anomaly: 110.7411 deg
Mean motion: 16.47981436 rev/day
Decay rate: 7.031946e-02 rev/day^2
Epoch rev: 2165
Checksum: 289
Satellite: FCAL
Catalog number: 29667
Epoch time: 07214.48950889
Element set: 233
Inclination: 051.6304 deg
RA of node: 211.1832 deg
Eccentricity: 0.0013306
Arg of perigee: 159.7130 deg
Mean anomaly: 200.4418 deg
Mean motion: 15.89741963 rev/day
Decay rate: 1.5714e-04 rev/day^2
Epoch rev: 3536
Checksum: 293
Satellite: FALCON
Catalog number: 30776
Epoch time: 07213.63198895
Element set: 0109
Inclination: 035.4356 deg
RA of node: 297.1689 deg
Eccentricity: 0.0000391
Arg of perigee: 084.3487 deg
Mean anomaly: 275.7273 deg
Mean motion: 15.02742718 rev/day
Decay rate: 1.91e-06 rev/day^2
Epoch rev: 02189
Checksum: 320
Satellite: MAST
Catalog number: 31126
Epoch time: 07213.76587559
Element set: 0097
Inclination: 098.0808 deg
RA of node: 285.2877 deg
Eccentricity: 0.0093823
Arg of perigee: 244.3070 deg
Mean anomaly: 114.8395 deg
Mean motion: 14.53355512 rev/day
Decay rate: 3.92e-06 rev/day^2
Epoch rev: 01547
Checksum: 316
Satellite: CAPE1
Catalog number: 31130
Epoch time: 07214.77070730
Element set: 82
Inclination: 098.0809 deg
RA of node: 286.0040 deg
Eccentricity: 0.0101927
Arg of perigee: 241.7202 deg
Mean anomaly: 117.3677 deg
Mean motion: 14.51872021 rev/day
Decay rate: 9.5e-07 rev/day^2
Epoch rev: 1537
Checksum: 259
/EX
More information about the Keps
mailing list